QPF
0.05 0.01 0.00 0.00 0.00 0.00 0.00 0.00 0.00 0.00 0.00 0.00 0.00 0.00 0.00 0.00 0.00 0.00 0.00 0.00 0.00 0.00 0.01 0.01 0.02 0.02 0.02 0.02 0.02 0.02 0.01 0.00 0.00 0.00 0.00 0.00 0.00 0.00 0.00 0.00 0.02 0.00 0.00
0.09 0.01 0.00 0.00 0.00 0.00 0.00 0.00 0.00 0.00 0.00 0.00 0.00 0.00 0.00 0.00 0.00 0.00 0.00 0.00 0.00 0.00 0.01 0.01 0.01 0.01 0.01 0.01 0.01 0.01 0.00 0.00 0.00 0.00 0.00 0.00 0.00 0.00 0.00 0.01 0.03 0.01 0.00
0.02 0.00 0.00 0.00 0.00 0.00 0.00 0.00 0.00 0.00 0.00 0.00 0.00 0.00 0.00 0.00 0.00 0.00 0.00 0.00 0.00 0.00 0.00 0.01 0.01 0.01 0.01 0.01 0.01 0.01 0.00 0.00 0.01 0.02 0.06 0.06 0.01 0.00 0.00 0.01 0.01 0.00 0.00
0.00 0.00 0.00 0.00 0.00 0.00 0.00 0.00 0.00 0.00 0.00 0.00 0.00 0.00 0.00 0.00 0.00 0.00 0.00 0.00 0.00 0.00 0.00 0.01 0.01 0.01 0.01 0.00 0.00 0.00 0.00 0.01 0.02 0.06 0.17 0.09 0.02 0.00 0.00 0.01 0.01 0.01 0.00
0.00 0.00 0.00 0.00 0.00 0.00 0.00 0.00 0.00 0.01 0.01 0.01 0.00 0.00 0.00 0.00 0.00 0.00 0.00 0.00 0.00 0.00 0.00 0.01 0.01 0.00 0.00 0.00 0.00 0.00 0.00 0.01 0.04 0.08 0.11 0.07 0.04 0.01 0.00 0.00 0.01 0.01 0.01
0.00 0.00 0.00 0.00 0.00 0.00 0.00 0.00 0.00 0.00 0.00 0.01 0.00 0.00 0.00 0.00 0.00 0.00 0.00 0.00 0.00 0.00 0.00 0.00 0.00 0.00 0.00 0.00 0.00 0.00 0.00 0.01 0.05 0.09 0.06 0.05 0.03 0.01 0.00 0.01 0.01 0.02 0.02
0.00 0.00 0.00 0.00 0.00 0.00 0.00 0.00 0.00 0.00 0.00 0.00 0.00 0.00 0.00 0.00 0.00 0.00 0.00 0.00 0.00 0.00 0.00 0.00 0.00 0.00 0.00 0.00 0.00 0.00 0.00 0.01 0.05 0.08 0.03 0.03 0.03 0.01 0.01 0.01 0.02 0.02 0.02
0.00 0.00 0.00 0.00 0.00 0.00 0.00 0.00 0.00 0.00 0.01 0.01 0.01 0.01 0.00 0.00 0.00 0.00 0.00 0.00 0.00 0.00 0.00 0.00 0.00 0.00 0.00 0.00 0.00 0.00 0.00 0.01 0.02 0.04 0.03 0.03 0.02 0.00 0.01 0.01 0.02 0.02 0.02
0.00 0.00 0.01 0.00 0.00 0.00 0.00 0.00 0.00 0.01 0.01 0.01 0.01 0.02 0.01 0.01 0.00 0.00 0.00 0.00 0.00 0.00 0.00 0.00 0.00 0.00 0.00 0.00 0.00 0.00 0.00 0.00 0.01 0.03 0.04 0.02 0.01 0.00 0.00 0.01 0.01 0.02 0.02
0.07 0.01 0.00 0.00 0.00 0.00 0.00 0.00 0.01 0.01 0.02 0.02 0.03 0.02 0.02 0.01 0.01 0.01 0.01 0.01 0.00 0.00 0.00 0.00 0.00 0.00 0.00 0.00 0.00 0.00 0.00 0.00 0.02 0.05 0.05 0.03 0.01 0.00 0.01 0.01 0.01 0.01 0.02
0.06 0.04 0.02 0.00 0.00 0.00 0.00 0.00 0.01 0.01 0.02 0.02 0.02 0.02 0.03 0.02 0.03 0.03 0.02 0.02 0.01 0.00 0.00 0.00 0.00 0.00 0.00 0.00 0.00 0.00 0.01 0.03 0.14 0.10 0.07 0.04 0.01 0.01 0.01 0.02 0.03 0.02 0.02
0.05 0.10 0.11 0.05 0.02 0.01 0.01 0.02 0.01 0.01 0.01 0.01 0.02 0.02 0.04 0.10 0.13 0.11 0.10 0.04 0.02 0.01 0.01 0.00 0.00 0.00 0.00 0.01 0.01 0.00 0.01 0.04 0.10 0.13 0.07 0.03 0.02 0.01 0.01 0.03 0.03 0.03 0.03
0.13 0.10 0.17 0.13 0.06 0.05 0.05 0.05 0.03 0.05 0.07 0.05 0.09 0.09 0.10 0.16 0.15 0.18 0.16 0.07 0.04 0.03 0.03 0.02 0.02 0.01 0.02 0.02 0.01 0.00 0.01 0.02 0.04 0.07 0.07 0.06 0.04 0.02 0.01 0.02 0.03 0.03 0.04
0.33 0.28 0.22 0.21 0.21 0.18 0.16 0.14 0.10 0.12 0.17 0.18 0.22 0.18 0.19 0.23 0.22 0.22 0.21 0.13 0.10 0.07 0.07 0.06 0.04 0.03 0.02 0.01 0.01 0.01 0.01 0.01 0.03 0.06 0.08 0.06 0.03 0.02 0.02 0.02 0.02 0.04 0.05
0.29 0.33 0.34 0.29 0.26 0.24 0.27 0.29 0.23 0.20 0.23 0.27 0.27 0.26 0.30 0.30 0.28 0.27 0.24 0.21 0.19 0.17 0.11 0.09 0.06 0.04 0.02 0.01 0.01 0.01 0.01 0.03 0.04 0.07 0.11 0.07 0.03 0.02 0.03 0.04 0.05 0.07 0.06
0.29 0.28 0.28 0.29 0.24 0.24 0.27 0.28 0.28 0.32 0.38 0.38 0.42 0.42 0.45 0.43 0.42 0.38 0.35 0.30 0.20 0.19 0.15 0.10 0.06 0.05 0.04 0.05 0.03 0.02 0.02 0.03 0.03 0.05 0.08 0.06 0.02 0.02 0.02 0.05 0.08 0.08 0.07
0.26 0.25 0.19 0.19 0.21 0.20 0.25 0.28 0.28 0.29 0.34 0.37 0.41 0.54 0.54 0.47 0.52 0.52 0.47 0.38 0.24 0.18 0.20 0.16 0.10 0.09 0.07 0.06 0.06 0.04 0.04 0.03 0.04 0.07 0.11 0.13 0.09 0.04 0.03 0.04 0.05 0.05 0.06
0.17 0.18 0.15 0.17 0.22 0.26 0.25 0.31 0.34 0.36 0.37 0.39 0.41 0.48 0.50 0.47 0.49 0.53 0.47 0.39 0.30 0.24 0.23 0.23 0.17 0.13 0.13 0.11 0.11 0.08 0.07 0.07 0.06 0.08 0.10 0.12 0.14 0.12 0.07 0.03 0.03 0.04 0.05
0.12 0.15 0.17 0.19 0.24 0.27 0.31 0.33 0.31 0.29 0.37 0.45 0.41 0.36 0.38 0.40 0.45 0.45 0.42 0.41 0.34 0.29 0.25 0.20 0.21 0.18 0.18 0.15 0.10 0.10 0.08 0.07 0.09 0.09 0.09 0.10 0.10 0.11 0.08 0.05 0.03 0.03 0.04
0.08 0.13 0.15 0.18 0.23 0.30 0.33 0.39 0.43 0.37 0.35 0.40 0.39 0.32 0.29 0.33 0.35 0.41 0.39 0.34 0.32 0.32 0.31 0.26 0.24 0.22 0.21 0.18 0.13 0.15 0.15 0.11 0.09 0.08 0.07 0.08 0.07 0.05 0.08 0.10 0.10 0.05 0.03
0.06 0.09 0.14 0.17 0.18 0.22 0.29 0.31 0.36 0.37 0.37 0.36 0.32 0.33 0.31 0.28 0.26 0.28 0.30 0.31 0.32 0.32 0.30 0.27 0.25 0.22 0.21 0.19 0.22 0.22 0.19 0.12 0.08 0.07 0.06 0.06 0.06 0.05 0.06 0.07 0.09 0.09 0.06
0.07 0.09 0.11 0.14 0.14 0.12 0.18 0.22 0.24 0.29 0.29 0.26 0.25 0.28 0.28 0.24 0.23 0.24 0.28 0.32 0.31 0.32 0.31 0.28 0.24 0.24 0.21 0.19 0.21 0.22 0.19 0.12 0.08 0.05 0.04 0.04 0.04 0.04 0.03 0.04 0.06 0.06 0.06
0.05 0.09 0.11 0.10 0.12 0.13 0.15 0.17 0.22 0.24 0.20 0.17 0.18 0.19 0.17 0.17 0.16 0.16 0.17 0.23 0.24 0.23 0.24 0.24 0.22 0.23 0.21 0.18 0.19 0.21 0.21 0.17 0.10 0.06 0.04 0.04 0.05 0.05 0.03 0.03 0.03 0.03 0.03
0.04 0.05 0.09 0.10 0.10 0.12 0.13 0.14 0.15 0.16 0.20 0.19 0.17 0.18 0.17 0.18 0.20 0.17 0.15 0.17 0.18 0.18 0.19 0.19 0.18 0.19 0.21 0.19 0.18 0.20 0.18 0.17 0.13 0.08 0.06 0.05 0.05 0.04 0.03 0.03 0.02 0.01 0.02
0.03 0.05 0.06 0.07 0.08 0.10 0.12 0.13 0.14 0.16 0.19 0.20 0.20 0.20 0.21 0.21 0.24 0.24 0.20 0.19 0.18 0.17 0.16 0.17 0.17 0.17 0.18 0.19 0.16 0.14 0.11 0.10 0.10 0.09 0.06 0.04 0.03 0.02 0.02 0.02 0.01 0.01 0.01
0.04 0.05 0.06 0.07 0.09 0.10 0.13 0.14 0.14 0.16 0.20 0.20 0.20 0.21 0.23 0.24 0.25 0.25 0.23 0.20 0.17 0.15 0.15 0.15 0.14 0.13 0.13 0.14 0.13 0.10 0.09 0.07 0.06 0.07 0.07 0.06 0.04 0.03 0.02 0.02 0.01 0.01 0.01
MSLP
1007.55 1007.59 1007.86 1008.34 1008.97 1009.66 1010.33 1010.91 1011.36 1011.70 1011.95 1012.15 1012.37 1012.63 1012.94 1013.28 1013.63 1013.95 1014.22 1014.42 1014.58 1014.71 1014.83 1014.97 1015.13 1015.31 1015.48 1015.63 1015.74 1015.82 1015.87 1015.92 1015.99 1016.10 1016.27 1016.48 1016.71 1016.94 1017.14 1017.31 1017.43 1017.53 1017.63
1007.45 1007.57 1007.90 1008.41 1009.04 1009.71 1010.34 1010.88 1011.32 1011.66 1011.96 1012.24 1012.55 1012.91 1013.30 1013.70 1014.06 1014.35 1014.56 1014.70 1014.79 1014.86 1014.95 1015.08 1015.25 1015.44 1015.63 1015.80 1015.92 1015.99 1016.03 1016.07 1016.14 1016.28 1016.47 1016.71 1016.98 1017.23 1017.46 1017.63 1017.75 1017.84 1017.92
1007.19 1007.39 1007.78 1008.33 1008.97 1009.63 1010.25 1010.78 1011.22 1011.60 1011.95 1012.32 1012.73 1013.18 1013.63 1014.05 1014.40 1014.66 1014.80 1014.87 1014.90 1014.93 1015.01 1015.14 1015.34 1015.56 1015.77 1015.94 1016.04 1016.09 1016.11 1016.13 1016.20 1016.33 1016.55 1016.82 1017.12 1017.42 1017.67 1017.86 1018.00 1018.10 1018.18
1006.82 1007.11 1007.58 1008.18 1008.85 1009.52 1010.13 1010.67 1011.13 1011.55 1011.97 1012.42 1012.90 1013.41 1013.90 1014.33 1014.66 1014.87 1014.96 1014.98 1014.97 1014.99 1015.08 1015.24 1015.47 1015.72 1015.94 1016.10 1016.18 1016.19 1016.16 1016.14 1016.18 1016.30 1016.53 1016.83 1017.18 1017.51 1017.81 1018.04 1018.20 1018.32 1018.42
1006.45 1006.85 1007.41 1008.08 1008.79 1009.48 1010.10 1010.64 1011.12 1011.57 1012.02 1012.52 1013.06 1013.60 1014.11 1014.54 1014.85 1015.02 1015.08 1015.07 1015.06 1015.10 1015.23 1015.43 1015.70 1015.97 1016.19 1016.32 1016.35 1016.30 1016.21 1016.13 1016.13 1016.24 1016.47 1016.80 1017.18 1017.55 1017.89 1018.16 1018.36 1018.51 1018.63
1006.20 1006.72 1007.38 1008.12 1008.88 1009.59 1010.21 1010.75 1011.22 1011.67 1012.14 1012.66 1013.20 1013.75 1014.26 1014.67 1014.96 1015.12 1015.17 1015.18 1015.20 1015.29 1015.46 1015.72 1016.02 1016.31 1016.52 1016.61 1016.58 1016.46 1016.29 1016.15 1016.11 1016.20 1016.42 1016.76 1017.17 1017.58 1017.95 1018.26 1018.48 1018.66 1018.81
1006.11 1006.75 1007.52 1008.34 1009.14 1009.87 1010.49 1011.01 1011.46 1011.88 1012.33 1012.82 1013.34 1013.87 1014.35 1014.74 1015.02 1015.18 1015.26 1015.30 1015.38 1015.52 1015.76 1016.07 1016.40 1016.69 1016.87 1016.92 1016.82 1016.63 1016.40 1016.21 1016.12 1016.19 1016.41 1016.76 1017.19 1017.62 1018.02 1018.34 1018.58 1018.77 1018.93
1006.18 1006.94 1007.80 1008.69 1009.54 1010.28 1010.88 1011.37 1011.77 1012.14 1012.54 1012.98 1013.46 1013.94 1014.39 1014.77 1015.04 1015.22 1015.32 1015.42 1015.55 1015.75 1016.04 1016.39 1016.73 1017.01 1017.17 1017.17 1017.02 1016.78 1016.50 1016.27 1016.16 1016.22 1016.45 1016.81 1017.24 1017.68 1018.08 1018.41 1018.66 1018.84 1019.00
1006.32 1007.17 1008.11 1009.05 1009.92 1010.66 1011.25 1011.70 1012.06 1012.38 1012.72 1013.11 1013.54 1013.98 1014.40 1014.76 1015.03 1015.22 1015.36 1015.49 1015.67 1015.92 1016.23 1016.59 1016.93 1017.18 1017.31 1017.27 1017.10 1016.83 1016.54 1016.31 1016.21 1016.27 1016.51 1016.87 1017.31 1017.75 1018.14 1018.46 1018.69 1018.86 1018.99
1006.39 1007.30 1008.28 1009.25 1010.13 1010.86 1011.43 1011.87 1012.20 1012.50 1012.81 1013.17 1013.57 1013.98 1014.38 1014.73 1015.00 1015.20 1015.36 1015.52 1015.71 1015.97 1016.28 1016.61 1016.92 1017.14 1017.24 1017.19 1017.01 1016.75 1016.48 1016.28 1016.21 1016.30 1016.56 1016.93 1017.37 1017.80 1018.18 1018.47 1018.68 1018.82 1018.93
1006.30 1007.21 1008.19 1009.15 1010.02 1010.75 1011.33 1011.77 1012.12 1012.43 1012.76 1013.13 1013.53 1013.95 1014.35 1014.70 1014.97 1015.18 1015.34 1015.50 1015.67 1015.90 1016.16 1016.45 1016.71 1016.89 1016.96 1016.91 1016.75 1016.53 1016.32 1016.18 1016.16 1016.30 1016.58 1016.97 1017.40 1017.82 1018.18 1018.45 1018.64 1018.75 1018.84
1005.98 1006.85 1007.78 1008.71 1009.55 1010.28 1010.88 1011.37 1011.78 1012.16 1012.56 1012.99 1013.44 1013.90 1014.32 1014.68 1014.97 1015.17 1015.32 1015.44 1015.57 1015.74 1015.93 1016.15 1016.34 1016.48 1016.54 1016.50 1016.38 1016.23 1016.10 1016.04 1016.09 1016.28 1016.58 1016.97 1017.39 1017.80 1018.14 1018.39 1018.57 1018.67 1018.74
1005.51 1006.27 1007.11 1007.96 1008.77 1009.50 1010.14 1010.70 1011.22 1011.72 1012.23 1012.77 1013.31 1013.83 1014.30 1014.69 1014.98 1015.18 1015.30 1015.38 1015.45 1015.54 1015.65 1015.78 1015.91 1016.01 1016.06 1016.05 1016.00 1015.93 1015.89 1015.92 1016.04 1016.27 1016.59 1016.98 1017.38 1017.76 1018.09 1018.34 1018.50 1018.61 1018.69
1005.00 1005.62 1006.32 1007.07 1007.82 1008.55 1009.24 1009.91 1010.55 1011.20 1011.86 1012.52 1013.16 1013.77 1014.29 1014.71 1015.01 1015.20 1015.29 1015.33 1015.34 1015.35 1015.39 1015.45 1015.52 1015.60 1015.66 1015.69 1015.71 1015.73 1015.79 1015.90 1016.08 1016.34 1016.67 1017.04 1017.41 1017.77 1018.07 1018.31 1018.49 1018.62 1018.72
1004.64 1005.08 1005.62 1006.25 1006.93 1007.64 1008.38 1009.14 1009.92 1010.71 1011.51 1012.30 1013.04 1013.71 1014.28 1014.72 1015.03 1015.21 1015.28 1015.28 1015.24 1015.21 1015.19 1015.20 1015.25 1015.32 1015.41 1015.50 1015.61 1015.72 1015.87 1016.06 1016.29 1016.56 1016.88 1017.21 1017.55 1017.86 1018.14 1018.38 1018.57 1018.73 1018.86
1004.61 1004.86 1005.23 1005.71 1006.30 1006.98 1007.75 1008.59 1009.47 1010.38 1011.28 1012.15 1012.96 1013.66 1014.25 1014.69 1014.99 1015.17 1015.22 1015.21 1015.16 1015.10 1015.06 1015.07 1015.12 1015.22 1015.36 1015.54 1015.73 1015.95 1016.18 1016.43 1016.70 1016.99 1017.28 1017.57 1017.85 1018.11 1018.35 1018.58 1018.78 1018.96 1019.14
1005.00 1005.07 1005.25 1005.58 1006.07 1006.70 1007.48 1008.35 1009.29 1010.26 1011.22 1012.11 1012.92 1013.61 1014.17 1014.59 1014.87 1015.03 1015.09 1015.09 1015.05 1015.01 1015.00 1015.03 1015.13 1015.28 1015.50 1015.77 1016.06 1016.38 1016.70 1017.02 1017.33 1017.62 1017.88 1018.12 1018.34 1018.54 1018.74 1018.94 1019.13 1019.34 1019.54
1005.82 1005.70 1005.71 1005.89 1006.27 1006.83 1007.57 1008.44 1009.39 1010.37 1011.31 1012.17 1012.93 1013.56 1014.05 1014.42 1014.66 1014.81 1014.88 1014.90 1014.90 1014.90 1014.95 1015.04 1015.21 1015.45 1015.76 1016.12 1016.53 1016.95 1017.37 1017.76 1018.11 1018.41 1018.66 1018.85 1019.02 1019.17 1019.31 1019.47 1019.64 1019.84 1020.05
1006.94 1006.67 1006.52 1006.56 1006.82 1007.30 1007.98 1008.81 1009.72 1010.64 1011.52 1012.30 1012.97 1013.50 1013.90 1014.20 1014.40 1014.53 1014.60 1014.66 1014.71 1014.78 1014.90 1015.07 1015.32 1015.65 1016.05 1016.53 1017.04 1017.57 1018.09 1018.56 1018.97 1019.29 1019.54 1019.72 1019.84 1019.94 1020.04 1020.14 1020.28 1020.45 1020.65
1008.21 1007.81 1007.52 1007.42 1007.57 1007.96 1008.56 1009.32 1010.16 1011.01 1011.80 1012.48 1013.03 1013.45 1013.76 1013.98 1014.14 1014.25 1014.34 1014.43 1014.54 1014.68 1014.86 1015.10 1015.43 1015.83 1016.33 1016.89 1017.51 1018.14 1018.75 1019.31 1019.79 1020.17 1020.44 1020.62 1020.73 1020.80 1020.86 1020.92 1021.01 1021.13 1021.29
1009.43 1008.93 1008.52 1008.31 1008.35 1008.65 1009.17 1009.86 1010.62 1011.39 1012.09 1012.68 1013.13 1013.47 1013.70 1013.86 1013.98 1014.09 1014.20 1014.32 1014.46 1014.65 1014.88 1015.17 1015.54 1016.00 1016.55 1017.19 1017.88 1018.59 1019.29 1019.93 1020.49 1020.93 1021.25 1021.46 1021.58 1021.65 1021.68 1021.71 1021.75 1021.83 1021.94
1010.47 1009.89 1009.39 1009.09 1009.04 1009.25 1009.70 1010.32 1011.02 1011.73 1012.37 1012.90 1013.30 1013.58 1013.78 1013.92 1014.03 1014.14 1014.26 1014.40 1014.57 1014.77 1015.02 1015.32 1015.70 1016.17 1016.74 1017.40 1018.12 1018.89 1019.64 1020.35 1020.98 1021.49 1021.87 1022.13 1022.29 1022.38 1022.41 1022.42 1022.45 1022.48 1022.55
1011.26 1010.64 1010.09 1009.72 1009.59 1009.74 1010.12 1010.69 1011.35 1012.02 1012.64 1013.16 1013.55 1013.85 1014.06 1014.21 1014.34 1014.48 1014.61 1014.76 1014.93 1015.12 1015.34 1015.62 1015.96 1016.39 1016.93 1017.56 1018.28 1019.04 1019.81 1020.55 1021.22 1021.78 1022.23 1022.55 1022.76 1022.89 1022.95 1022.98 1023.00 1023.02 1023.05
1011.85 1011.23 1010.65 1010.24 1010.06 1010.16 1010.49 1011.02 1011.66 1012.32 1012.95 1013.50 1013.94 1014.29 1014.55 1014.76 1014.94 1015.10 1015.26 1015.40 1015.55 1015.70 1015.87 1016.08 1016.35 1016.71 1017.17 1017.73 1018.38 1019.10 1019.84 1020.56 1021.24 1021.82 1022.30 1022.67 1022.94 1023.12 1023.23 1023.30 1023.34 1023.37 1023.40
1012.36 1011.77 1011.21 1010.78 1010.58 1010.63 1010.93 1011.42 1012.04 1012.71 1013.36 1013.96 1014.47 1014.89 1015.24 1015.52 1015.76 1015.96 1016.12 1016.26 1016.38 1016.47 1016.57 1016.70 1016.88 1017.14 1017.49 1017.95 1018.50 1019.12 1019.78 1020.44 1021.07 1021.63 1022.12 1022.52 1022.82 1023.06 1023.23 1023.35 1023.43 1023.50 1023.55
1012.91 1012.40 1011.88 1011.48 1011.26 1011.29 1011.54 1012.00 1012.59 1013.25 1013.92 1014.56 1015.13 1015.63 1016.05 1016.40 1016.69 1016.92 1017.10 1017.22 1017.30 1017.34 1017.38 1017.42 1017.51 1017.66 1017.91 1018.24 1018.67 1019.16 1019.70 1020.26 1020.80 1021.30 1021.75 1022.15 1022.48 1022.75 1022.97 1023.15 1023.29 1023.40 1023.50
Thickness
5822 5816 5810 5807 5803 5800 5797 5795 5792 5789 5786 5784 5782 5780 5779 5777 5776 5774 5772 5770 5768 5766 5765 5762 5761 5759 5758 5758 5757 5756 5755 5754 5754 5753 5752 5750 5748 5746 5744 5742 5741 5739 5737
5822 5814 5809 5806 5802 5798 5795 5792 5789 5786 5784 5782 5780 5778 5776 5774 5773 5771 5769 5767 5765 5763 5762 5760 5758 5757 5756 5755 5754 5753 5752 5752 5751 5750 5749 5748 5745 5743 5742 5741 5741 5737 5735
5821 5812 5807 5804 5800 5796 5793 5790 5787 5784 5781 5779 5777 5775 5773 5771 5769 5767 5766 5764 5762 5761 5759 5757 5756 5755 5753 5753 5752 5751 5750 5749 5749 5748 5748 5746 5743 5741 5739 5738 5737 5734 5732
5819 5811 5807 5802 5798 5795 5791 5787 5784 5781 5778 5776 5774 5771 5769 5768 5766 5764 5763 5761 5759 5758 5757 5755 5754 5752 5751 5751 5750 5749 5748 5748 5747 5747 5747 5746 5743 5739 5737 5735 5734 5732 5730
5817 5810 5803 5799 5796 5792 5789 5785 5782 5779 5776 5773 5771 5768 5766 5764 5762 5761 5759 5758 5756 5755 5754 5753 5752 5750 5749 5749 5748 5747 5747 5746 5746 5746 5747 5746 5742 5738 5736 5734 5732 5730 5728
5815 5809 5800 5796 5793 5790 5786 5783 5779 5776 5773 5770 5768 5765 5763 5761 5759 5758 5756 5755 5753 5752 5751 5750 5749 5748 5747 5746 5746 5746 5746 5746 5746 5748 5748 5745 5741 5737 5735 5732 5730 5728 5726
5814 5808 5797 5793 5790 5786 5783 5780 5776 5773 5770 5767 5765 5762 5760 5758 5756 5754 5753 5752 5750 5749 5748 5747 5746 5746 5745 5744 5744 5744 5744 5745 5746 5749 5748 5745 5740 5737 5734 5732 5729 5727 5725
5813 5806 5795 5789 5786 5783 5780 5776 5773 5770 5767 5764 5762 5759 5757 5755 5753 5751 5750 5749 5747 5746 5745 5744 5744 5743 5743 5743 5743 5743 5743 5743 5747 5748 5746 5743 5739 5736 5733 5731 5728 5726 5724
5813 5804 5792 5787 5782 5779 5776 5773 5770 5767 5763 5761 5758 5755 5753 5751 5750 5748 5747 5746 5744 5743 5742 5741 5741 5741 5741 5741 5741 5742 5742 5743 5744 5746 5745 5741 5738 5735 5732 5730 5727 5725 5723
5808 5802 5793 5787 5781 5776 5773 5769 5766 5763 5760 5757 5754 5752 5750 5748 5746 5745 5743 5742 5741 5740 5739 5739 5739 5739 5739 5739 5739 5740 5741 5741 5744 5745 5743 5739 5737 5734 5731 5729 5726 5724 5722
5802 5799 5794 5787 5781 5777 5773 5767 5763 5760 5757 5754 5751 5749 5747 5746 5744 5742 5742 5739 5738 5738 5737 5737 5736 5737 5737 5737 5738 5738 5738 5740 5743 5742 5740 5737 5735 5733 5730 5727 5725 5723 5721
5794 5794 5793 5788 5781 5777 5775 5767 5762 5759 5755 5753 5750 5747 5745 5746 5744 5742 5740 5737 5735 5735 5735 5735 5735 5734 5735 5736 5737 5736 5738 5740 5741 5738 5735 5734 5732 5730 5728 5725 5723 5721 5719
5790 5789 5788 5784 5779 5776 5774 5766 5762 5759 5755 5752 5750 5746 5744 5744 5743 5740 5738 5734 5733 5732 5733 5733 5733 5734 5735 5738 5739 5738 5738 5739 5740 5736 5731 5729 5728 5727 5725 5723 5720 5718 5716
5782 5781 5780 5779 5775 5773 5771 5764 5761 5758 5754 5751 5747 5743 5742 5741 5740 5738 5737 5734 5732 5732 5733 5733 5733 5735 5737 5739 5739 5739 5739 5738 5737 5733 5728 5726 5725 5724 5722 5720 5718 5715 5713
5774 5774 5772 5769 5766 5765 5764 5759 5756 5754 5751 5748 5744 5740 5738 5737 5736 5735 5734 5733 5734 5734 5733 5733 5734 5736 5737 5737 5737 5737 5737 5735 5733 5729 5725 5723 5722 5721 5719 5717 5715 5712 5710
5769 5766 5767 5765 5763 5761 5757 5752 5750 5752 5749 5746 5741 5736 5733 5733 5732 5730 5730 5731 5732 5733 5732 5732 5733 5734 5734 5733 5733 5732 5731 5730 5727 5725 5722 5719 5717 5716 5714 5713 5710 5708 5706
5765 5764 5763 5761 5760 5758 5754 5749 5747 5746 5745 5741 5737 5733 5730 5729 5729 5727 5725 5725 5727 5729 5729 5728 5728 5730 5728 5728 5727 5726 5725 5724 5722 5719 5717 5714 5711 5709 5708 5706 5704 5703 5700
5757 5757 5758 5757 5753 5751 5749 5744 5742 5742 5740 5736 5732 5729 5727 5726 5725 5723 5721 5719 5721 5722 5722 5722 5722 5722 5721 5720 5719 5719 5718 5717 5715 5713 5711 5709 5706 5703 5700 5698 5697 5695 5693
5749 5749 5748 5747 5744 5743 5742 5738 5735 5735 5733 5730 5726 5725 5724 5722 5720 5718 5716 5716 5717 5717 5717 5717 5716 5716 5712 5711 5711 5711 5710 5710 5708 5706 5703 5701 5699 5696 5693 5690 5689 5687 5685
5739 5739 5739 5738 5737 5736 5733 5729 5726 5725 5724 5721 5718 5718 5718 5716 5714 5713 5711 5711 5712 5712 5711 5711 5710 5709 5706 5705 5704 5701 5701 5701 5699 5697 5695 5693 5691 5688 5685 5682 5680 5677 5676
5726 5727 5728 5725 5725 5725 5722 5719 5716 5714 5712 5711 5711 5710 5711 5710 5708 5708 5708 5707 5706 5706 5706 5705 5702 5700 5698 5697 5693 5689 5688 5690 5688 5687 5686 5684 5682 5679 5677 5674 5671 5668 5665
5714 5715 5715 5714 5714 5715 5714 5714 5711 5707 5704 5703 5702 5702 5703 5702 5701 5702 5702 5700 5700 5700 5699 5698 5696 5693 5691 5690 5686 5680 5674 5673 5675 5676 5675 5674 5672 5670 5667 5664 5661 5658 5656
5701 5703 5705 5704 5705 5705 5706 5705 5702 5699 5696 5693 5692 5692 5694 5694 5693 5694 5694 5693 5693 5693 5691 5691 5690 5687 5683 5682 5682 5678 5672 5666 5663 5662 5663 5661 5661 5659 5657 5654 5651 5647 5645
5691 5692 5693 5694 5695 5695 5696 5696 5694 5690 5685 5682 5681 5681 5682 5682 5683 5685 5685 5685 5684 5684 5683 5682 5681 5680 5677 5675 5674 5673 5671 5668 5660 5652 5651 5651 5651 5649 5646 5645 5642 5638 5635
5680 5681 5681 5683 5683 5685 5686 5687 5685 5681 5677 5674 5671 5670 5670 5671 5672 5673 5674 5675 5674 5673 5673 5672 5671 5671 5670 5668 5666 5665 5663 5660 5658 5650 5642 5640 5639 5638 5636 5634 5632 5629 5626
5668 5668 5669 5670 5671 5672 5673 5674 5673 5670 5667 5664 5661 5660 5658 5659 5659 5660 5661 5661 5661 5661 5662 5661 5660 5660 5659 5658 5657 5656 5653 5651 5648 5645 5638 5633 5630 5628 5627 5625 5623 5620 5617